Dewpoint
26 26 26 26 25 25 24 25 25 25 25 26 26 27 28 28 28 28 30 30 29 28 28 28 28 28 30 33 36 37 37 37 38 38 38 39 39 39 39 40 40 40 41 41 41 41 41 41 41 42 42 42 42 42 43 43 43 44 44 44 44 45 45 45 46 46 46 46 46 47 47 47 47 47 47 47 48 48 48 48 48 48 48 48 49 49
26 26 26 26 25 24 24 25 25 25 25 26 26 27 28 27 27 28 28 29 29 28 28 28 28 28 28 31 34 37 37 37 37 38 38 38 39 39 39 40 40 40 41 41 41 41 41 41 41 41 41 42 42 42 42 42 43 43 44 44 44 45 45 45 46 46 46 46 47 47 47 47 47 47 47 47 47 47 47 47 47 47 48 48 48 48
26 26 26 26 25 25 25 25 26 26 26 27 27 28 28 27 28 28 28 28 28 28 28 28 28 28 28 31 33 36 37 37 37 38 38 38 39 39 39 39 40 40 40 40 40 40 40 40 40 40 41 41 41 42 42 42 42 42 43 43 44 44 45 45 45 46 46 46 46 47 47 47 47 47 47 47 47 46 46 46 47 47 47 47 47 48
26 26 26 26 25 25 26 26 27 27 28 28 28 28 28 28 28 28 28 28 28 27 27 28 28 28 29 30 33 35 37 37 37 38 38 38 38 38 39 39 39 40 40 40 40 39 39 39 39 40 40 41 41 41 41 42 42 42 42 42 43 43 44 44 45 45 45 45 46 46 46 46 46 46 46 46 46 46 46 46 47 47 47 47 47 48
26 26 26 26 26 26 27 28 28 28 28 28 28 28 28 28 28 28 28 28 28 27 28 28 28 29 30 30 32 35 37 37 37 37 38 38 38 38 38 39 39 39 40 39 39 39 38 39 39 40 40 41 41 41 42 42 42 42 42 42 42 43 43 44 44 44 44 45 45 45 45 46 46 46 46 46 46 46 46 46 46 47 47 47 48 48
27 27 27 27 27 28 28 28 28 28 28 28 27 27 27 27 27 27 27 27 27 28 28 29 29 30 31 31 33 35 37 37 37 37 37 37 37 38 38 39 39 39 39 39 38 38 38 39 40 41 41 42 42 42 42 42 43 42 42 42 42 43 43 43 43 44 44 44 44 45 45 45 45 45 46 46 46 46 46 46 46 46 47 47 47 48
27 28 28 28 28 28 28 28 28 28 27 26 26 27 27 27 27 27 27 27 28 28 29 30 31 31 31 32 33 35 35 36 36 36 36 37 37 38 38 39 40 40 39 38 38 39 39 40 41 42 42 43 43 43 43 43 43 43 42 42 42 42 42 42 43 43 43 43 44 44 44 44 44 44 45 45 45 45 45 45 46 46 46 46 47 47
28 29 29 29 29 28 28 27 27 27 27 26 26 26 26 26 27 27 28 28 29 29 30 31 32 32 31 30 31 32 32 32 32 33 34 35 37 38 39 40 40 40 39 39 39 40 41 42 42 43 43 43 43 43 43 43 42 42 42 41 41 41 41 42 42 42 42 42 43 43 43 43 44 44 44 44 44 44 44 45 45 45 46 46 46 46
31 31 30 29 28 27 27 27 27 27 27 27 26 26 26 26 26 27 28 29 30 31 32 32 31 30 30 29 29 30 31 31 31 32 33 33 35 37 39 40 40 40 39 40 40 41 42 42 43 43 43 43 43 42 42 42 41 40 39 39 39 40 40 40 41 41 41 41 42 42 42 43 43 43 44 44 44 44 44 44 44 44 45 45 45 46
31 30 28 28 28 28 28 27 27 27 28 27 27 27 27 27 28 28 29 31 32 33 32 31 30 30 30 30 31 31 33 33 34 36 36 36 37 38 39 39 39 39 40 40 40 41 41 42 42 42 42 42 42 41 40 40 39 38 38 38 38 39 39 40 40 40 40 40 41 41 42 42 42 43 43 43 43 43 43 43 43 43 43 44 44 44
29 29 29 29 29 29 28 27 27 27 28 28 29 29 29 30 31 32 33 32 32 31 30 30 30 31 31 32 32 32 32 33 34 35 37 37 38 39 38 38 38 39 40 40 40 40 40 40 41 41 41 39 38 38 37 37 37 37 37 38 38 39 39 40 40 40 40 40 41 41 41 41 42 42 42 43 43 43 43 43 43 43 43 43 43 43
29 30 30 30 29 28 28 27 28 28 29 30 30 31 31 32 32 31 30 29 28 28 29 30 31 31 32 32 31 31 31 31 32 33 34 35 35 36 37 37 38 39 39 38 38 38 38 38 38 38 37 37 36 36 35 35 36 36 37 37 37 38 39 39 39 40 40 41 41 41 41 41 41 41 42 42 43 43 44 44 43 43 43 43 43 43
31 31 31 30 29 28 28 28 28 28 29 29 29 28 28 28 28 28 28 28 29 30 30 31 32 32 31 31 30 30 30 30 30 30 31 32 34 37 38 38 38 37 37 36 35 35 36 36 36 36 36 35 35 35 35 35 35 36 36 36 37 37 38 39 39 40 41 41 42 42 42 42 42 41 41 42 42 43 44 44 44 44 44 43 43 43
31 31 30 29 28 28 27 27 27 27 27 27 28 28 28 28 29 29 29 30 30 31 32 32 31 31 30 29 29 29 28 28 29 31 33 35 37 39 39 38 38 37 35 33 32 32 33 34 33 33 34 34 34 34 34 35 35 35 35 36 37 37 39 40 41 41 42 42 42 42 42 42 42 42 41 42 42 42 43 44 44 44 44 44 44 44
30 29 28 28 27 26 26 26 26 27 27 28 28 29 29 29 30 30 30 31 31 32 32 31 30 29 28 28 28 28 28 31 33 36 37 37 38 38 38 38 37 36 33 31 30 30 32 32 31 30 30 31 32 33 33 33 34 34 35 35 37 38 39 41 42 42 42 42 42 42 42 42 42 42 41 41 42 42 43 43 44 44 44 44 44 44
30 29 28 27 27 27 27 27 28 28 28 29 30 30 30 31 31 32 33 33 32 32 31 30 28 28 27 28 28 29 32 35 37 37 36 36 36 37 37 36 34 32 31 30 29 29 29 29 28 28 28 30 32 33 33 33 33 34 34 35 36 37 38 39 40 41 42 42 42 42 42 42 42 42 41 41 41 42 42 43 43 44 44 44 45 45
30 30 29 29 28 28 28 28 29 30 30 31 31 32 33 33 34 34 34 33 31 30 29 28 28 27 26 26 28 32 37 37 37 36 34 34 34 33 33 31 30 29 28 28 28 28 28 27 27 27 27 30 32 33 33 33 33 33 34 34 35 36 36 37 38 39 40 41 42 42 42 42 42 42 42 41 41 42 42 42 43 44 44 44 45 45
30 30 29 29 29 29 29 30 31 32 33 33 33 34 35 35 34 33 31 29 28 28 28 28 28 28 27 28 32 36 37 36 35 33 33 31 30 29 28 28 28 28 27 27 27 27 27 26 26 27 28 31 32 33 32 33 33 33 33 34 34 34 35 35 36 37 38 39 40 41 41 42 42 42 42 41 41 41 42 42 42 43 44 44 45 45
31 31 31 31 31 32 33 33 33 33 34 34 34 34 33 32 31 29 28 28 28 28 28 28 29 30 32 33 34 35 35 34 33 32 31 29 28 28 27 27 27 26 26 26 26 26 26 26 28 30 32 32 32 32 32 32 32 33 33 33 34 34 34 35 35 36 36 37 37 38 39 40 41 41 42 41 41 41 41 42 42 42 43 44 44 45
33 33 33 33 33 34 34 35 35 34 34 34 34 33 33 31 30 29 28 28 29 29 31 31 32 32 32 31 31 31 31 31 30 29 28 27 26 26 26 26 26 25 25 25 26 26 26 25 26 28 30 31 31 31 32 32 32 33 33 33 33 34 34 34 35 35 35 35 36 36 36 37 38 39 40 40 40 40 40 40 41 42 43 43 44 44
33 33 34 34 33 33 33 32 33 33 34 35 35 34 32 31 30 29 29 30 31 32 33 33 32 31 30 29 29 28 28 28 28 27 27 26 25 25 25 25 25 25 25 25 25 25 25 24 24 24 28 30 31 31 32 32 32 33 33 33 33 33 33 33 34 34 35 35 36 36 36 37 37 37 37 38 38 38 38 39 40 41 42 43 44 44
33 32 32 32 32 32 33 33 34 35 37 36 35 33 32 31 30 30 31 32 32 33 32 32 31 30 30 29 28 28 28 28 27 26 26 25 24 24 24 24 24 24 25 25 24 24 23 23 23 24 28 30 31 31 32 32 32 32 32 32 32 33 33 33 33 35 36 37 37 37 37 37 37 37 37 37 37 37 37 38 39 41 42 43 43 44
33 32 32 33 33 34 35 35 36 37 37 36 35 33 33 33 33 33 33 33 33 33 33 33 32 31 30 29 28 27 27 27 26 25 24 23 22 22 23 24 24 24 24 24 23 22 22 23 23 25 28 30 31 31 31 31 31 31 32 32 32 32 33 34 35 36 37 37 37 37 38 38 39 39 39 39 38 37 37 38 39 40 42 42 43 43
34 34 34 35 35 36 37 37 37 37 37 36 35 35 35 36 35 35 34 34 34 33 33 32 30 28 28 27 25 24 23 23 24 23 23 22 21 22 23 23 24 23 23 22 22 22 23 23 24 24 26 29 30 30 31 30 31 31 31 31 32 33 34 36 37 37 37 36 36 36 37 37 39 40 40 41 40 39 39 39 40 41 42 42 43 43
36 37 37 37 38 38 38 37 37 37 37 37 37 37 37 37 37 36 35 35 33 32 30 28 27 25 24 24 23 21 21 22 23 23 23 22 22 23 24 24 23 23 22 22 22 23 23 23 24 24 25 27 28 29 30 30 30 31 31 32 32 33 34 35 35 35 35 34 34 35 35 36 37 39 40 41 41 41 42 41 41 42 42 42 43 43
38 39 39 38 38 37 37 37 37 37 37 37 37 37 37 37 36 34 33 32 31 29 28 26 25 24 24 23 22 21 21 22 23 23 24 23 23 23 24 24 23 22 22 22 23 23 23 23 23 23 23 24 26 28 29 29 30 30 31 31 32 32 32 33 33 32 32 33 33 33 34 35 36 37 39 40 41 41 41 41 41 42 42 42 43 43
39 38 37 37 36 35 35 36 36 37 37 37 36 36 36 35 34 33 31 30 29 28 27 26 25 24 24 23 22 22 22 23 24 24 24 24 24 24 24 24 23 23 23 23 24 24 24 24 23 22 22 22 24 26 28 29 29 30 30 30 30 31 31 31 31 31 32 32 32 33 33 33 35 36 37 38 39 39 39 39 40 41 42 42 42 42
36 35 34 34 35 35 36 37 37 37 37 36 35 35 35 34 33 31 30 29 29 28 28 26 25 24 24 23 22 22 23 23 24 24 24 24 24 24 24 24 24 24 23 23 24 24 25 24 23 22 22 22 23 24 27 28 29 29 29 29 30 30 30 31 31 31 32 32 32 32 32 33 33 35 36 36 37 37 37 37 38 39 40 41 41 41
34 34 35 35 36 37 37 37 37 36 35 35 34 33 33 33 32 30 30 30 29 28 28 27 26 25 24 24 23 23 22 22 23 24 25 24 24 24 24 24 24 24 24 24 24 24 23 23 22 21 21 23 23 23 24 26 27 28 28 29 29 30 30 30 31 31 31 31 31 32 32 32 33 33 34 34 35 35 35 35 36 37 38 39 39 39
33 33 34 35 36 36 36 35 35 35 35 34 33 32 31 31 31 30 30 30 29 28 27 27 26 25 25 24 23 22 21 21 23 24 25 24 24 24 24 24 25 25 25 25 24 23 21 21 21 21 21 23 23 22 22 24 24 25 26 27 28 29 30 30 30 31 31 31 31 31 31 32 32 33 33 33 34 34 34 35 35 36 37 37 37 37
31 32 32 33 33 33 33 33 32 32 32 32 31 31 31 30 30 30 30 30 29 28 28 27 27 26 26 25 23 21 20 21 23 25 26 25 25 25 25 26 26 26 27 26 24 22 20 20 20 21 22 22 22 22 22 23 23 24 24 25 26 27 29 29 30 30 30 31 31 31 31 32 32 32 33 33 34 34 34 34 35 35 36 37 37 37
31 32 31 30 30 29 29 28 28 27 27 28 28 30 31 31 31 31 31 30 29 29 28 28 28 27 26 26 24 23 22 23 24 26 27 27 27 27 27 27 27 27 27 26 24 23 21 20 20 21 22 22 22 22 23 24 24 24 24 24 24 25 28 29 29 29 29 30 30 31 31 31 32 32 33 33 34 34 35 35 34 35 36 36 37 36
30 29 28 28 27 26 26 25 25 25 25 26 27 28 30 31 32 32 31 30 30 30 29 28 28 27 27 26 25 24 24 24 25 27 29 28 28 28 28 27 27 26 25 25 24 23 22 21 21 21 21 22 22 23 23 24 24 24 24 23 23 24 26 27 28 28 28 29 30 30 31 31 32 33 33 34 35 35 35 35 35 34 35 36 37 37
28 27 26 25 25 24 24 24 24 24 25 26 28 29 30 30 30 31 31 30 30 30 29 28 28 27 26 26 25 24 24 24 25 28 30 29 28 28 27 26 26 25 25 24 24 23 23 22 21 21 21 22 23 23 23 24 24 24 24 23 23 24 25 26 26 26 27 28 28 28 29 30 32 33 34 35 36 37 37 37 36 35 35 36 37 37
25 25 25 24 24 23 23 24 24 24 25 27 28 29 29 29 28 28 28 28 28 28 28 28 27 27 26 25 25 24 24 24 26 28 30 30 29 28 27 26 25 25 25 24 24 24 23 22 22 22 22 23 23 23 23 23 23 24 24 24 24 24 25 25 25 26 26 27 27 27 28 29 31 33 34 36 37 37 38 37 37 37 36 36 36 36
24 24 24 23 23 23 23 23 24 24 26 28 28 28 28 27 27 26 26 27 27 28 28 28 28 28 27 27 26 25 25 26 27 29 30 30 29 28 27 27 27 27 26 25 25 24 24 23 24 24 24 23 23 22 23 23 24 24 25 25 26 26 26 27 27 26 26 26 26 27 28 29 31 33 35 37 37 38 38 38 38 37 37 36 36 36
23 23 22 22 22 22 23 23 24 26 28 29 29 28 27 26 26 26 26 26 27 27 28 28 28 29 29 28 28 28 28 28 28 30 31 31 30 29 28 28 28 28 27 26 26 25 24 24 24 24 24 23 22 22 22 23 24 24 25 26 27 27 28 28 28 27 26 26 27 28 29 31 32 34 36 37 37 38 38 38 37 37 37 37 37 36
22 22 22 22 22 23 24 25 27 29 31 30 28 27 27 26 26 26 26 26 26 26 27 28 28 28 30 31 31 30 30 30 30 30 31 31 31 30 29 28 28 28 28 28 27 27 26 25 24 24 24 23 23 23 23 24 24 25 26 27 28 28 28 28 28 28 27 28 28 30 31 32 33 34 35 36 36 36 35 35 36 37 37 37 37 36
21 21 22 24 25 26 27 28 29 30 30 29 28 27 27 26 27 27 27 27 27 27 27 28 28 28 29 30 31 31 32 31 31 31 31 31 31 30 30 29 28 28 28 29 28 28 28 27 26 25 24 24 23 24 24 24 25 26 27 28 28 29 29 29 29 29 28 28 29 30 30 31 32 33 33 33 33 33 33 33 33 34 35 34 34 35
23 23 24 26 27 28 28 29 29 29 28 28 28 28 27 27 27 27 27 27 28 28 27 27 28 28 28 29 30 30 31 31 32 32 31 31 31 30 30 29 29 29 29 29 30 29 29 28 27 26 26 25 24 24 24 25 26 27 28 28 28 28 29 30 30 30 29 28 28 29 29 30 31 32 32 32 33 33 33 33 33 33 34 33 32 32
24 25 26 27 27 28 29 29 28 28 27 26 26 25 25 25 25 26 26 26 27 27 26 27 27 27 27 28 28 29 31 32 32 32 31 30 30 30 29 29 29 29 29 29 29 29 29 28 27 27 26 26 26 26 26 26 27 28 28 28 28 28 30 31 31 31 30 28 28 28 30 31 31 32 33 33 34 34 34 33 33 33 34 33 33 32
26 26 26 26 26 27 27 27 27 27 27 26 25 24 25 25 25 25 25 25 25 25 25 25 26 26 26 28 29 30 30 29 29 29 28 27 27 28 28 28 28 28 29 29 29 28 28 28 28 28 28 28 27 27 25 25 26 27 28 28 29 30 30 30 30 29 28 28 28 29 31 32 32 33 34 34 34 34 34 34 34 34 34 33 33 32
25 26 26 26 26 26 27 27 27 27 26 25 24 24 24 25 25 25 25 24 24 25 26 26 26 26 26 28 28 27 24 23 23 23 24 24 24 26 27 28 28 29 29 28 28 28 28 28 28 28 28 27 26 25 25 25 26 27 28 29 30 30 29 29 29 29 29 29 30 31 32 33 34 34 34 33 33 33 33 34 34 34 34 34 33 33
25 25 25 26 26 27 27 27 26 25 25 24 24 24 24 24 25 25 25 25 25 26 26 26 26 26 28 27 25 22 20 20 20 21 22 25 26 27 27 27 27 27 27 26 25 25 25 24 24 24 24 24 24 25 25 26 26 27 28 29 30 31 30 30 30 31 31 31 32 33 33 34 33 32 31 31 31 32 32 33 33 33 34 34 34 34
24 25 26 27 27 27 27 26 26 26 26 25 25 24 24 24 25 25 25 25 25 25 25 25 26 26 27 24 21 19 19 19 19 20 21 24 25 25 25 25 25 25 25 24 24 23 23 22 22 23 24 24 24 25 25 26 26 27 28 30 31 32 32 32 33 33 32 33 33 33 33 32 31 30 30 30 31 31 32 32 33 33 33 33 33 33
24 25 25 25 25 26 27 28 28 28 27 26 25 24 24 24 24 24 25 25 25 24 24 25 26 26 25 23 20 19 18 18 19 19 19 21 22 24 24 24 24 24 24 23 23 23 23 22 22 23 23 23 23 24 25 25 27 28 29 31 31 31 32 33 33 33 33 33 32 31 31 30 30 30 30 30 30 31 32 33 33 33 32 31 30 30
23 24 24 24 25 25 26 27 28 27 26 25 25 24 24 24 24 25 25 25 24 24 23 25 26 26 23 21 19 18 18 18 19 19 19 19 20 21 22 22 23 23 23 22 23 23 23 23 23 23 22 22 22 23 24 25 28 29 31 30 30 30 31 32 32 32 33 32 31 30 29 29 29 29 30 30 30 31 33 33 34 33 33 31 29 28
24 24 23 23 24 24 25 26 26 25 24 24 24 24 24 25 25 25 25 24 23 23 23 24 25 24 21 19 19 19 19 19 19 19 19 19 19 19 20 20 21 21 22 22 23 23 23 23 24 23 23 23 23 23 24 27 29 30 30 30 29 30 30 31 31 31 30 30 29 28 28 29 30 30 30 30 30 30 32 33 34 33 33 30 28 27
23 23 23 23 23 23 24 24 24 24 23 23 24 24 24 26 26 26 25 24 22 22 23 24 24 22 19 18 19 19 20 19 19 18 18 18 19 19 19 20 20 20 20 20 20 20 21 22 23 24 25 26 26 27 28 30 30 30 29 29 28 29 29 30 30 30 29 28 28 27 28 28 29 30 30 29 29 29 30 31 31 31 30 28 28 28
22 22 23 23 23 23 24 24 24 24 24 24 24 24 24 24 24 24 24 23 22 22 24 24 23 21 19 18 19 19 20 19 19 18 18 18 18 19 19 19 19 19 19 19 18 18 18 19 21 24 28 30 31 30 30 29 29 28 28 28 28 28 28 29 30 30 30 29 28 27 26 27 28 29 29 28 27 27 27 28 28 27 28 28 28 29
22 22 22 22 23 23 24 24 24 25 25 25 25 24 24 24 23 23 22 21 21 22 24 24 21 19 19 19 19 20 20 19 18 17 17 18 18 19 19 19 19 19 18 17 16 16 16 15 16 19 22 25 27 27 28 28 27 28 27 27 27 27 28 28 29 31 32 31 29 28 26 27 28 28 27 26 25 25 25 25 25 26 27 27 28 29